Pitt Meadows, British Columbia

6:02 PM PDT on May 25, 2018 (GMT -0700)
Pitt Meadows

Weather History for CWMM - March, 2014

Change the Weather History Date:

Friday, March 21, 2014

  Actual Average Record
Temperature  
Mean Temperature 41 °F -  
Max Temperature 51 °F - - ()
Min Temperature 31 °F - - ()
Degree Days  
Heating Degree Days 24    
Moisture  
Dew Point 31 °F    
Average Humidity 69    
Maximum Humidity 94    
Minimum Humidity 32    
Precipitation  
Precipitation 0.00 in - - ()
Sea Level Pressure  
Sea Level Pressure 30.35 in    
Wind  
Wind Speed 2 mph ()    
Max Wind Speed 7 mph    
Max Gust Speed -    
T = Trace of Precipitation, MM = Missing Value Source: Averaged Metar Reports

Daily Weather History Graph

Daily Weather History Graph

Search for Another Location

Airport or City:

Astronomy

Mar. 21, 2014 Rise Set
Actual Time 7:11 AM PDT 7:25 PM PDT
Civil Twilight 6:39 AM PDT 7:57 PM PDT
Nautical Twilight 6:02 AM PDT 8:34 PM PDT
Astronomical Twilight 5:23 AM PDT 9:13 PM PDT
Moon 12:12 AM PDT (3/21) 9:43 AM PDT (3/21)
Length of Visible Light 13h 17m
Length of Day
12h 14m
Waning Gibbous, 74% of the Moon is Illuminated
Mar 21
Waning Gibbous
Mar 23
Last Quarter
Mar 30
New
Apr 7
First Quarter
Apr 15
Full

Hourly Weather History & Observations

Time (PDT) Temp. Windchill Dew Point Humidity Pressure Visibility Wind Dir Wind Speed Gust Speed Precip Events Conditions
12:00 AM 36.1 °F - 30.9 °F 81% 30.36 in - ESE 2.3 mph - N/A   Unknown
1:00 AM 32.9 °F - 29.8 °F 88% 30.36 in - ENE 1.2 mph - N/A   Unknown
2:00 AM 34.3 °F - 31.8 °F 90% 30.37 in - SE 1.2 mph - N/A   Unknown
3:00 AM 35.4 °F - 31.8 °F 87% 30.37 in - ESE 1.2 mph - N/A   Unknown
4:00 AM 34.2 °F - 32.0 °F 92% 30.37 in - ENE 1.2 mph - N/A   Unknown
5:00 AM 33 °F - 31 °F 92% 30.37 in - ENE 2.3 mph - -  
5:00 AM 33.4 °F - 31.5 °F 92% 30.37 in - ENE 2.3 mph - N/A   Unknown
6:00 AM 32.0 °F - 30.0 °F 92% 30.37 in - West 2.3 mph - N/A   Unknown
7:00 AM 33.1 °F - 31.5 °F 94% 30.37 in - East 1.2 mph - N/A   Unknown
8:00 AM 33.4 °F - 31.6 °F 93% 30.38 in - Calm Calm - N/A   Unknown
9:00 AM 39.0 °F - 34.5 °F 84% 30.38 in - ESE 1.2 mph - N/A   Unknown
10:00 AM 41.2 °F - 34.2 °F 76% 30.38 in - SSW 2.3 mph - N/A   Unknown
11:00 AM 45 °F - 35 °F 58% 30.38 in - SW 3.5 mph - -  
11:00 AM 45.0 °F 43.5 °F 35.1 °F 68% 30.38 in - SW 3.5 mph - N/A   Unknown
12:00 PM 46.2 °F 45.0 °F 29.7 °F 53% 30.38 in - South 3.5 mph - N/A   Unknown
1:00 PM 48.7 °F - 29.3 °F 47% 30.36 in - South 3.5 mph - N/A   Unknown
2:00 PM 50.2 °F - 29.1 °F 44% 30.35 in - SSW 3.5 mph - N/A   Unknown
3:00 PM 49.3 °F - 27.7 °F 43% 30.33 in - WNW 3.5 mph - N/A   Unknown
4:00 PM 48.2 °F - 29.3 °F 48% 30.33 in - WNW 4.6 mph - N/A   Unknown
5:00 PM 50 °F - 29 °F 32% 30.32 in - West 4.6 mph - -  
5:00 PM 50.2 °F - 29.3 °F 45% 30.32 in - West 4.6 mph - N/A   Unknown
6:00 PM 49.3 °F - 29.3 °F 46% 30.32 in - West 6.9 mph - N/A   Unknown
7:00 PM 47.1 °F - 25.9 °F 44% 30.32 in - WSW 3.5 mph - N/A   Unknown
8:00 PM 43.2 °F - 27.1 °F 53% 30.32 in - NW 2.3 mph - N/A   Unknown
9:00 PM 40.3 °F - 28.6 °F 63% 30.33 in - Calm Calm - N/A   Unknown
10:00 PM 39.7 °F 37.6 °F 31.3 °F 72% 30.33 in - WNW 3.5 mph - N/A   Unknown
11:00 PM 38 °F - 31 °F 68% 30.34 in - Calm Calm - -  
11:00 PM 37.6 °F - 31.3 °F 78% 30.34 in - Calm Calm - N/A   Unknown